Location: ????????
(55.6189°N, 38.3031°E)
Time: 13:33:35
(UTC+00:00)

COSMO-SKYMED 1 - Pass Details

Date: 15 November 2019
Orbit: 621 x 623 km, 97.9° (Epoch: 06 December)

Event Time Altitude Azimuth Distance (km) Brightness Sun altitude
Rises 01:24:33 0° 135° (SE) 2,899 6.4 -30.0°
Reaches altitude 10° 01:26:53 10° 125° (SE) 1,996 5.6 -29.7°
Maximum altitude 01:30:45 32° 62° (ENE) 1,069 4.2 -29.2°
Enters shadow 01:33:21 18° 10° (N) 1,562 4.8 -28.8°
